Flag for Belgium Weather past 2 weeks in Ghent, Belgium

Now
43 °F

Quite cool.


Feels Like: 41 °F
Forecast: 34 / 48 °F
Wind: 5 mph from Northwest

Location: Munte

Current Time: Feb 27, 2015 at 2:48:01 PM

Latest Report: Feb 27, 2015 at 2:00 PM


Visibility: 14 mi

Pressure: 30.12 "Hg

Humidity: 64%

Dew point: 32 °F

Location of GhentLocation

Historic Weather in Ghent — Graph

°F

Ghent temperature yesterday

Maximum temperature yesterday: 48 °F (at 7:00 PM)
Minimum temperature yesterday: 38 °F (at 3:00 AM)
Average temperature yesterday: 44 °F

Past Weeks' High & Low Weather Summary

 TemperatureHumidityPressure
High51 °F (Feb 13, 3:00 PM)100% (Feb 12, 11:00 PM)30.78 "Hg (Feb 12, 11:00 PM)
Low27 °F (Feb 18, 8:00 AM)56% (Feb 23, 1:00 PM)29.35 "Hg (Feb 23, 5:00 AM)
Average40 °F88%29.96 "Hg
* Reported Feb 12 1:00 PM — Feb 27 1:00 PM, Ghent, Weather by CustomWeather, © 2015

Note: Actual official high and low records may vary slightly from our data, if they occured in-between our weather recording intervals... More about our weather records

Advertising

Ghent weather history for previous 24 hours

 ConditionsComfort  
Time TempWeatherWind HumidityBarometerVisibility
1:00 PM
Fri, Feb 27
44 °FQuite cool.5 mph69%30.11 "Hg16 mi
12:00 PM43 °FQuite cool.6 mph68%30.10 "Hg14 mi
11:00 AM42 °FQuite cool.3 mph77%30.08 "Hg10 mi
10:00 AM41 °FQuite cool.3 mph79%30.07 "Hg10 mi
9:00 AM39 °FChilly.2 mph85%30.05 "Hg9 mi
8:00 AM37 °FChilly.2 mph86%30.02 "Hg9 mi
7:00 AM38 °FChilly.3 mph84%30.00 "Hg9 mi
6:00 AM40 °FChilly.5 mph82%29.98 "Hg9 mi
5:00 AM40 °FQuite cool.5 mph80%29.96 "Hg9 mi
2:00 AM42 °FQuite cool.5 mph80%29.91 "Hg9 mi
1:00 AM42 °FQuite cool.6 mph83%29.89 "Hg10 mi
12:00 AM43 °FQuite cool.6 mph90%29.88 "Hg8 mi
11:00 PM
Thu, Feb 26
42 °FQuite cool.5 mph95%29.87 "Hg7 mi
10:00 PM42 °FLight rain. Overcast.7 mph97%29.85 "Hg3 mi
9:00 PM45 °FQuite cool.6 mph96%29.83 "Hg6 mi
8:00 PM48 °FLight rain. Overcast.6 mph99%29.81 "Hg4 mi
7:00 PM48 °FLight rain. Overcast.6 mph97%29.82 "Hg5 mi
6:00 PM48 °FRain. Cloudy.7 mph99%29.83 "Hg4 mi
5:00 PM47 °FFog.7 mph99%29.85 "Hg2 mi
4:00 PM48 °FCool.8 mph96%29.87 "Hg7 mi
3:00 PM47 °FCool.7 mph97%29.89 "Hg6 mi
2:00 PM47 °FCool.7 mph97%29.92 "Hg5 mi
Weather by CustomWeather, © 2015

See weather overviewHow to use our weather pages